﻿測定場所 (Monitoring sites),日付 (Measurement date),時間 (Measurement time),線量率 最大値 (max) μGy/h,線量率 最小値 (min) μGy/h,線量率 平均値 (average) μGy/h,
大田 (Ota),2012-07-15,23:01～24:00,0.0597,0.0533,0.0569,
大田 (Ota),2012-07-15,22:01～23:00,0.0604,0.0535,0.0569,
大田 (Ota),2012-07-15,21:01～22:00,0.0613,0.0535,0.0567,
大田 (Ota),2012-07-15,20:01～21:00,0.0602,0.0531,0.0569,
大田 (Ota),2012-07-15,19:01～20:00,0.0598,0.0532,0.0566,
大田 (Ota),2012-07-15,18:01～19:00,0.0612,0.0540,0.0572,
大田 (Ota),2012-07-15,17:01～18:00,0.0608,0.0543,0.0570,
大田 (Ota),2012-07-15,16:01～17:00,0.0603,0.0537,0.0570,
大田 (Ota),2012-07-15,15:01～16:00,0.0597,0.0533,0.0568,
大田 (Ota),2012-07-15,14:01～15:00,0.0601,0.0525,0.0569,
大田 (Ota),2012-07-15,13:01～14:00,0.0608,0.0530,0.0569,
大田 (Ota),2012-07-15,12:01～13:00,0.0595,0.0537,0.0566,
大田 (Ota),2012-07-15,11:01～12:00,0.0605,0.0529,0.0564,
大田 (Ota),2012-07-15,10:01～11:00,0.0599,0.0528,0.0562,
大田 (Ota),2012-07-15,09:01～10:00,0.0605,0.0528,0.0566,
大田 (Ota),2012-07-15,08:01～09:00,0.0607,0.0529,0.0569,
大田 (Ota),2012-07-15,07:01～08:00,0.0607,0.0536,0.0565,
大田 (Ota),2012-07-15,06:01～07:00,0.0601,0.0521,0.0566,
大田 (Ota),2012-07-15,05:01～06:00,0.0597,0.0524,0.0563,
大田 (Ota),2012-07-15,04:01～05:00,0.0613,0.0530,0.0565,
大田 (Ota),2012-07-15,03:01～04:00,0.0597,0.0530,0.0565,
大田 (Ota),2012-07-15,02:01～03:00,0.0592,0.0535,0.0565,
大田 (Ota),2012-07-15,01:01～02:00,0.0592,0.0530,0.0565,
大田 (Ota),2012-07-15,00:01～01:00,0.0603,0.0528,0.0565,
大田 (Ota),2012-07-14,23:01～24:00,0.0596,0.0534,0.0564,
大田 (Ota),2012-07-14,22:01～23:00,0.0597,0.0527,0.0568,
大田 (Ota),2012-07-14,21:01～22:00,0.0615,0.0538,0.0566,
大田 (Ota),2012-07-14,20:01～21:00,0.0601,0.0532,0.0563,
大田 (Ota),2012-07-14,19:01～20:00,0.0595,0.0536,0.0566,
大田 (Ota),2012-07-14,18:01～19:00,0.0616,0.0543,0.0571,
大田 (Ota),2012-07-14,17:01～18:00,0.0603,0.0527,0.0566,
大田 (Ota),2012-07-14,16:01～17:00,0.0599,0.0523,0.0566,
大田 (Ota),2012-07-14,15:01～16:00,0.0602,0.0531,0.0565,
大田 (Ota),2012-07-14,14:01～15:00,0.0605,0.0530,0.0566,
大田 (Ota),2012-07-14,13:01～14:00,0.0610,0.0526,0.0566,
大田 (Ota),2012-07-14,12:01～13:00,0.0609,0.0532,0.0565,
大田 (Ota),2012-07-14,11:01～12:00,0.0606,0.0531,0.0568,
大田 (Ota),2012-07-14,10:01～11:00,0.0600,0.0528,0.0566,
大田 (Ota),2012-07-14,09:01～10:00,0.0614,0.0509,0.0568,
大田 (Ota),2012-07-14,08:01～09:00,0.0608,0.0531,0.0571,
大田 (Ota),2012-07-14,07:01～08:00,0.0685,0.0540,0.0603,
大田 (Ota),2012-07-14,06:01～07:00,0.0758,0.0619,0.0686,
大田 (Ota),2012-07-14,05:01～06:00,0.0796,0.0667,0.0729,
大田 (Ota),2012-07-14,04:01～05:00,0.0697,0.0575,0.0637,
大田 (Ota),2012-07-14,03:01～04:00,0.0656,0.0565,0.0612,
大田 (Ota),2012-07-14,02:01～03:00,0.0651,0.0574,0.0614,
大田 (Ota),2012-07-14,01:01～02:00,0.0638,0.0550,0.0595,
大田 (Ota),2012-07-14,00:01～01:00,0.0635,0.0568,0.0597,
大田 (Ota),2012-07-13,23:01～24:00,0.0626,0.0545,0.0588,
大田 (Ota),2012-07-13,22:01～23:00,0.0597,0.0542,0.0572,
大田 (Ota),2012-07-13,21:01～22:00,0.0610,0.0536,0.0578,
大田 (Ota),2012-07-13,20:01～21:00,0.0610,0.0528,0.0573,
大田 (Ota),2012-07-13,19:01～20:00,0.0624,0.0547,0.0578,
大田 (Ota),2012-07-13,18:01～19:00,0.0610,0.0537,0.0577,
大田 (Ota),2012-07-13,17:01～18:00,0.0623,0.0554,0.0585,
大田 (Ota),2012-07-13,16:01～17:00,0.0611,0.0545,0.0578,
大田 (Ota),2012-07-13,15:01～16:00,0.0607,0.0529,0.0577,
大田 (Ota),2012-07-13,14:01～15:00,0.0614,0.0541,0.0571,
大田 (Ota),2012-07-13,13:01～14:00,0.0612,0.0531,0.0575,
大田 (Ota),2012-07-13,12:01～13:00,0.0606,0.0524,0.0566,
大田 (Ota),2012-07-13,11:01～12:00,0.0603,0.0535,0.0571,
大田 (Ota),2012-07-13,10:01～11:00,0.0592,0.0528,0.0565,
大田 (Ota),2012-07-13,09:01～10:00,0.0596,0.0523,0.0566,
大田 (Ota),2012-07-13,08:01～09:00,0.0609,0.0521,0.0565,
大田 (Ota),2012-07-13,07:01～08:00,0.0604,0.0532,0.0565,
大田 (Ota),2012-07-13,06:01～07:00,0.0608,0.0535,0.0570,
大田 (Ota),2012-07-13,05:01～06:00,0.0607,0.0524,0.0571,
大田 (Ota),2012-07-13,04:01～05:00,0.0632,0.0556,0.0589,
大田 (Ota),2012-07-13,03:01～04:00,0.0689,0.0579,0.0634,
大田 (Ota),2012-07-13,02:01～03:00,0.0731,0.0633,0.0678,
大田 (Ota),2012-07-13,01:01～02:00,0.0686,0.0542,0.0594,
大田 (Ota),2012-07-13,00:01～01:00,0.0632,0.0557,0.0597,
大田 (Ota),2012-07-12,23:01～24:00,0.0620,0.0547,0.0578,
大田 (Ota),2012-07-12,22:01～23:00,0.0603,0.0542,0.0575,
大田 (Ota),2012-07-12,21:01～22:00,0.0606,0.0530,0.0570,
大田 (Ota),2012-07-12,20:01～21:00,0.0600,0.0516,0.0567,
大田 (Ota),2012-07-12,19:01～20:00,0.0607,0.0530,0.0573,
大田 (Ota),2012-07-12,18:01～19:00,0.0599,0.0544,0.0572,
大田 (Ota),2012-07-12,17:01～18:00,0.0608,0.0535,0.0571,
大田 (Ota),2012-07-12,16:01～17:00,0.0617,0.0544,0.0583,
大田 (Ota),2012-07-12,15:01～16:00,0.0655,0.0582,0.0610,
大田 (Ota),2012-07-12,14:01～15:00,0.0684,0.0583,0.0639,
大田 (Ota),2012-07-12,13:01～14:00,0.0637,0.0556,0.0597,
大田 (Ota),2012-07-12,12:01～13:00,0.0657,0.0562,0.0611,
大田 (Ota),2012-07-12,11:01～12:00,0.0660,0.0579,0.0621,
大田 (Ota),2012-07-12,10:01～11:00,0.0635,0.0551,0.0596,
大田 (Ota),2012-07-12,09:01～10:00,0.0620,0.0552,0.0588,
大田 (Ota),2012-07-12,08:01～09:00,0.0608,0.0533,0.0576,
大田 (Ota),2012-07-12,07:01～08:00,0.0623,0.0522,0.0572,
大田 (Ota),2012-07-12,06:01～07:00,0.0632,0.0542,0.0576,
大田 (Ota),2012-07-12,05:01～06:00,0.0603,0.0538,0.0572,
大田 (Ota),2012-07-12,04:01～05:00,0.0601,0.0538,0.0575,
大田 (Ota),2012-07-12,03:01～04:00,0.0630,0.0544,0.0575,
大田 (Ota),2012-07-12,02:01～03:00,0.0608,0.0532,0.0575,
大田 (Ota),2012-07-12,01:01～02:00,0.0611,0.0537,0.0578,
大田 (Ota),2012-07-12,00:01～01:00,0.0611,0.0526,0.0573,
大田 (Ota),2012-07-11,23:01～24:00,0.0609,0.0544,0.0575,
大田 (Ota),2012-07-11,22:01～23:00,0.0616,0.0540,0.0578,
大田 (Ota),2012-07-11,21:01～22:00,0.0609,0.0530,0.0576,
大田 (Ota),2012-07-11,20:01～21:00,0.0612,0.0528,0.0575,
大田 (Ota),2012-07-11,19:01～20:00,0.0614,0.0534,0.0577,
大田 (Ota),2012-07-11,18:01～19:00,0.0612,0.0538,0.0572,
大田 (Ota),2012-07-11,17:01～18:00,0.0623,0.0538,0.0578,
大田 (Ota),2012-07-11,16:01～17:00,0.0617,0.0538,0.0577,
大田 (Ota),2012-07-11,15:01～16:00,0.0612,0.0545,0.0574,
大田 (Ota),2012-07-11,14:01～15:00,0.0617,0.0548,0.0574,
大田 (Ota),2012-07-11,13:01～14:00,0.0612,0.0552,0.0578,
大田 (Ota),2012-07-11,12:01～13:00,0.0616,0.0542,0.0576,
大田 (Ota),2012-07-11,11:01～12:00,0.0607,0.0526,0.0573,
大田 (Ota),2012-07-11,10:01～11:00,0.0602,0.0535,0.0574,
大田 (Ota),2012-07-11,09:01～10:00,0.0629,0.0529,0.0571,
大田 (Ota),2012-07-11,08:01～09:00,0.0628,0.0526,0.0571,
大田 (Ota),2012-07-11,07:01～08:00,0.0608,0.0539,0.0573,
大田 (Ota),2012-07-11,06:01～07:00,0.0615,0.0548,0.0575,
大田 (Ota),2012-07-11,05:01～06:00,0.0609,0.0541,0.0573,
大田 (Ota),2012-07-11,04:01～05:00,0.0615,0.0539,0.0575,
大田 (Ota),2012-07-11,03:01～04:00,0.0624,0.0546,0.0575,
大田 (Ota),2012-07-11,02:01～03:00,0.0609,0.0549,0.0573,
大田 (Ota),2012-07-11,01:01～02:00,0.0605,0.0540,0.0575,
大田 (Ota),2012-07-11,00:01～01:00,0.0607,0.0540,0.0574,
大田 (Ota),2012-07-10,23:01～24:00,0.0609,0.0538,0.0576,
大田 (Ota),2012-07-10,22:01～23:00,0.0617,0.0541,0.0574,
大田 (Ota),2012-07-10,21:01～22:00,0.0612,0.0536,0.0575,
大田 (Ota),2012-07-10,20:01～21:00,0.0608,0.0535,0.0576,
大田 (Ota),2012-07-10,19:01～20:00,0.0599,0.0535,0.0575,
大田 (Ota),2012-07-10,18:01～19:00,0.0610,0.0542,0.0573,
大田 (Ota),2012-07-10,17:01～18:00,0.0625,0.0534,0.0575,
大田 (Ota),2012-07-10,16:01～17:00,0.0609,0.0545,0.0572,
大田 (Ota),2012-07-10,15:01～16:00,0.0611,0.0534,0.0574,
大田 (Ota),2012-07-10,14:01～15:00,0.0607,0.0540,0.0572,
大田 (Ota),2012-07-10,13:01～14:00,0.0614,0.0536,0.0579,
大田 (Ota),2012-07-10,12:01～13:00,0.0609,0.0536,0.0570,
大田 (Ota),2012-07-10,11:01～12:00,0.0601,0.0534,0.0571,
大田 (Ota),2012-07-10,10:01～11:00,0.0594,0.0538,0.0571,
大田 (Ota),2012-07-10,09:01～10:00,0.0600,0.0534,0.0572,
大田 (Ota),2012-07-10,08:01～09:00,0.0615,0.0546,0.0568,
大田 (Ota),2012-07-10,07:01～08:00,0.0604,0.0537,0.0568,
大田 (Ota),2012-07-10,06:01～07:00,0.0608,0.0519,0.0569,
大田 (Ota),2012-07-10,05:01～06:00,0.0616,0.0533,0.0569,
大田 (Ota),2012-07-10,04:01～05:00,0.0598,0.0539,0.0569,
大田 (Ota),2012-07-10,03:01～04:00,0.0606,0.0535,0.0574,
大田 (Ota),2012-07-10,02:01～03:00,0.0607,0.0539,0.0568,
大田 (Ota),2012-07-10,01:01～02:00,0.0603,0.0524,0.0576,
大田 (Ota),2012-07-10,00:01～01:00,0.0605,0.0524,0.0569,
大田 (Ota),2012-07-09,23:01～24:00,0.0598,0.0532,0.0570,
大田 (Ota),2012-07-09,22:01～23:00,0.0603,0.0532,0.0569,
大田 (Ota),2012-07-09,21:01～22:00,0.0606,0.0539,0.0569,
大田 (Ota),2012-07-09,20:01～21:00,0.0608,0.0546,0.0572,
大田 (Ota),2012-07-09,19:01～20:00,0.0604,0.0535,0.0567,
大田 (Ota),2012-07-09,18:01～19:00,0.0593,0.0525,0.0569,
大田 (Ota),2012-07-09,17:01～18:00,0.0606,0.0535,0.0572,
大田 (Ota),2012-07-09,16:01～17:00,0.0610,0.0535,0.0567,
大田 (Ota),2012-07-09,15:01～16:00,0.0605,0.0534,0.0569,
大田 (Ota),2012-07-09,14:01～15:00,0.0616,0.0530,0.0569,
大田 (Ota),2012-07-09,13:01～14:00,0.0599,0.0513,0.0562,
大田 (Ota),2012-07-09,12:01～13:00,0.0608,0.0535,0.0569,
大田 (Ota),2012-07-09,11:01～12:00,0.0599,0.0523,0.0563,
大田 (Ota),2012-07-09,10:01～11:00,0.0603,0.0531,0.0568,
大田 (Ota),2012-07-09,09:01～10:00,0.0602,0.0516,0.0560,
大田 (Ota),2012-07-09,08:01～09:00,0.0592,0.0523,0.0560,
大田 (Ota),2012-07-09,07:01～08:00,0.0598,0.0531,0.0565,
大田 (Ota),2012-07-09,06:01～07:00,0.0597,0.0524,0.0565,
大田 (Ota),2012-07-09,05:01～06:00,0.0590,0.0531,0.0563,
大田 (Ota),2012-07-09,04:01～05:00,0.0601,0.0510,0.0566,
大田 (Ota),2012-07-09,03:01～04:00,0.0591,0.0530,0.0566,
大田 (Ota),2012-07-09,02:01～03:00,0.0595,0.0531,0.0561,
大田 (Ota),2012-07-09,01:01～02:00,0.0605,0.0528,0.0565,
大田 (Ota),2012-07-09,00:01～01:00,0.0594,0.0537,0.0561,
